Home   Weather   Brockton   Past weeks

Flag for USA Past Weather in Brockton, Massachusetts, USA — Yesterday and Last 2 Weeks

Now
68 °F

Mild.


Feels Like: 68 °F
Forecast: 58 / 77 °F
Wind: 9 mph from Southwest

Location: East Milton

Current Time: Apr 29, 2017 at 1:37:27 am

Latest Report: Apr 29, 2017 at 12:56 am


Visibility: N/A

Pressure: 30.03 "Hg

Humidity: 63%

Dew Point: 55 °F

Location of BrocktonLocation

Past Weather in Brockton — Graph

°F

Brockton Temperature Yesterday

Maximum temperature yesterday: 82 °F (at 4:56 pm)
Minimum temperature yesterday: 57 °F (at 12:56 am)
Average temperature yesterday: 67 °F

High & Low Weather Summary for the Past Weeks

 TemperatureHumidityPressure
High85 °F (Apr 16, 2:56 pm)97% (Apr 20, 6:56 am)30.59 "Hg (Apr 20, 6:56 am)
Low35 °F (Apr 19, 3:56 am)19% (Apr 15, 11:56 am)29.67 "Hg (Apr 16, 6:56 pm)
Average53 °F70%30.11 "Hg
* Reported Apr 13 11:56 pm — Apr 28 11:56 pm, Brockton, Weather by CustomWeather, © 2017

Note: Actual official high and low records may vary slightly from our data, if they occured in-between our weather recording intervals... More about our weather records

Advertising

Brockton Weather History for the Previous 24 Hours

Scroll right to see more
 ConditionsComfort  
Time TempWeatherWind HumidityBarometerVisibility
11:56 pm
Fri, Apr 28
68 °FMild.10 mph65%30.03 "HgN/A
10:56 pm70 °FMild.12 mph61%30.03 "HgN/A
9:56 pm71 °FMild.14 mph57%30.03 "HgN/A
8:56 pm73 °FMild.12 mph57%30.01 "HgN/A
7:56 pm74 °FMild.14 mph60%29.98 "HgN/A
6:56 pm78 °FPleasantly warm.9 mph36%29.97 "HgN/A
5:56 pm79 °FWarm.10 mph42%29.96 "HgN/A
4:56 pm82 °FWarm.9 mph43%29.95 "HgN/A
3:56 pm81 °FWarm.15 mph47%29.95 "HgN/A
2:56 pm78 °FWarm.8 mph52%29.96 "HgN/A
1:56 pm74 °FMild.9 mph62%29.99 "HgN/A
12:56 pm69 °FMild.8 mph70%29.98 "HgN/A
11:56 am65 °FMild.9 mph78%29.99 "HgN/A
10:56 am65 °FMild.10 mph78%29.99 "HgN/A
9:56 am61 °FCool.8 mph90%29.96 "HgN/A
8:56 am58 °FCool.9 mph97%29.99 "HgN/A
7:56 am58 °FCool.13 mph97%29.98 "HgN/A
6:56 am58 °FCool.12 mph97%29.95 "HgN/A
5:56 am58 °FCool.10 mph93%29.95 "HgN/A
4:56 am58 °FCool.14 mph93%29.94 "HgN/A
3:56 am57 °FCool.13 mph93%29.94 "HgN/A
2:56 am57 °FCool.12 mph93%29.94 "HgN/A
1:56 am57 °FCool.9 mph90%29.94 "HgN/A
Weather by CustomWeather, © 2017

See weather overviewHow to use our weather pages